Location: ?????????
(54.7630°N, 39.4991°E)
Time: 07:19:28
(UTC+00:00)

NOSS 2-1 (E) - Pass Details

Date: 14 April 2026
Orbit: 385 x 1749 km, 63.3° (Epoch: 7 May)

Event Time Altitude Azimuth Distance (km) Brightness Sun altitude
Rises 18:58:33 0° 307° (NW) 2,317 8.0 -18.9°
Reaches altitude 10° 19:00:28 10° 301° (WNW) 1,508 6.6 -19.1°
Maximum altitude 19:03:36 47° 226° (SW) 632 3.5 -19.4°
Enters shadow 19:03:59 45° 204° (SSW) 663 3.5 -19.4°
